Location: N�rnberg
(49.4471°N, 11.0632°E)
Time: 21:57:13
(UTC+02:00)

VELOX 1 - Pass Details

Date: 21 April 2026
Orbit: 569 x 580 km, 98.3° (Epoch: 13 May)

Event Time Altitude Azimuth Distance (km) Brightness Sun altitude
Rises 02:28:00 0° 355° (N) 2,785 ? -26.7°
Drops below altitude 10° 02:31:30 - 322° (NW) 1,953 ? -26.5°
Maximum altitude 02:32:41 10° 306° (NW) 1,880 ? -26.4°
Enters shadow 02:33:05 10° 300° (WNW) 1,888 ? -26.4°
